,,,PA_Meas_PMT16A,,PR_Meas_QMR101_102,,RH_Meas_QMH101,,SR_Meas_QMS101,,TA_Meas_QMH101,,GenWind,,GenWind,
date,time,status,PA,status,PR,status,RH,status,SR,status,TA,status,DirAvg,status,SpdAvg,
2012-06-26, 00:00:05,VALID,1010.63,VALID,0,VALID,104,VALID,0.112112,VALID,23.0493,VALID,35,VALID,0,
2012-06-26, 00:01:05,VALID,1010.6,VALID,0,VALID,104,VALID,0.112112,VALID,23.0298,VALID,35,VALID,0,
2012-06-26, 00:02:05,VALID,1010.61,VALID,0,VALID,104,VALID,0,VALID,23.0298,VALID,35,VALID,0.332031,
2012-06-26, 00:03:05,VALID,1010.58,VALID,0,VALID,104,VALID,0.112112,VALID,23.0298,VALID,35,VALID,0.240234,
2012-06-26, 00:04:05,VALID,1010.59,VALID,0,VALID,104,VALID,0.112112,VALID,23.0103,VALID,35,VALID,0.240234,
2012-06-26, 00:05:05,VALID,1010.58,VALID,0,VALID,104,VALID,0.112112,VALID,23.0298,VALID,35,VALID,0.357812,
2012-06-26, 00:06:05,VALID,1010.59,VALID,0,VALID,104,VALID,0.112112,VALID,23.0298,VALID,35,VALID,0.199609,
2012-06-26, 00:07:05,VALID,1010.56,VALID,0,VALID,104,VALID,0.112112,VALID,23.0493,VALID,35,VALID,0.191016,
2012-06-26, 00:08:05,VALID,1010.56,VALID,0,VALID,104,VALID,0.112112,VALID,23.0298,VALID,35,VALID,0.273438,
2012-06-26, 00:09:05,VALID,1010.55,VALID,0,VALID,104,VALID,0,VALID,23.0316,VALID,35,VALID,0.342187,
2012-06-26, 00:10:05,VALID,1010.54,VALID,0,VALID,104,VALID,0.112112,VALID,23.0103,VALID,35,VALID,0.415234,
2012-06-26, 00:11:05,VALID,1010.54,VALID,0,VALID,104,VALID,0.112112,VALID,23.0103,VALID,35,VALID,0.472656,
2012-06-26, 00:12:05,VALID,1010.5,VALID,0,VALID,104,VALID,0.112112,VALID,22.9909,VALID,35,VALID,0.539453,
2012-06-26, 00:13:05,VALID,1010.51,VALID,0,VALID,104,VALID,0.112112,VALID,23.0121,VALID,35,VALID,0.573047,
2012-06-26, 00:14:05,VALID,1010.48,VALID,0,VALID,104,VALID,0.112112,VALID,23.0121,VALID,34,VALID,0.630859,
2012-06-26, 00:15:05,VALID,1010.47,VALID,0,VALID,104,VALID,0,VALID,22.9909,VALID,32,VALID,0.609375,
2012-06-26, 00:16:05,VALID,1010.44,VALID,0,VALID,104,VALID,0,VALID,23.0121,VALID,32,VALID,0.560156,
2012-06-26, 00:17:05,VALID,1010.46,VALID,0,VALID,104,VALID,0.112112,VALID,23.0103,VALID,8,VALID,0.630859,
2012-06-26, 00:18:05,VALID,1010.43,VALID,0,VALID,104,VALID,0,VALID,22.9926,VALID,8,VALID,0.289453,
2012-06-26, 00:19:05,VALID,1010.41,VALID,0,VALID,104,VALID,0,VALID,22.9324,VALID,8,VALID,0.260156,
2012-06-26, 00:20:05,VALID,1010.39,VALID,0,VALID,104,VALID,0,VALID,22.9147,VALID,8,VALID,0.264062,
2012-06-26, 00:21:05,VALID,1010.37,VALID,0,VALID,104,VALID,0.112112,VALID,22.874,VALID,8,VALID,0.316406,
2012-06-26, 00:22:05,VALID,1010.35,VALID,0,VALID,104,VALID,0.112112,VALID,22.874,VALID,8,VALID,0.180078,
2012-06-26, 00:23:05,VALID,1010.35,VALID,0,VALID,104,VALID,0.112112,VALID,22.8935,VALID,8,VALID,0.250391,
2012-06-26, 00:24:05,VALID,1010.33,VALID,0,VALID,104,VALID,0,VALID,22.8952,VALID,8,VALID,0,
2012-06-26, 00:25:05,VALID,1010.34,VALID,0,VALID,104,VALID,0,VALID,22.9359,VALID,8,VALID,0.511328,
2012-06-26, 00:26:05,VALID,1010.31,VALID,0,VALID,104,VALID,0,VALID,22.9342,VALID,8,VALID,0.0289063,
2012-06-26, 00:27:05,VALID,1010.28,VALID,0,VALID,104,VALID,0,VALID,22.9359,VALID,8,VALID,0,
2012-06-26, 00:28:05,VALID,1010.28,VALID,0,VALID,104,VALID,0,VALID,22.9147,VALID,8,VALID,0.0292969,
2012-06-26, 00:29:05,VALID,1010.27,VALID,0,VALID,104,VALID,0,VALID,22.9554,VALID,8,VALID,0.135937,
2012-06-26, 00:30:05,VALID,1010.26,VALID,0,VALID,104,VALID,0,VALID,22.9342,VALID,8,VALID,0,
2012-06-26, 00:31:05,VALID,1010.26,VALID,0,VALID,104,VALID,0,VALID,22.9342,VALID,8,VALID,0.194531,
2012-06-26, 00:32:05,VALID,1010.23,VALID,0,VALID,104,VALID,0,VALID,22.9554,VALID,8,VALID,0.258203,
2012-06-26, 00:33:05,VALID,1010.22,VALID,0,VALID,104,VALID,0,VALID,22.9536,VALID,8,VALID,0.280859,
2012-06-26, 00:34:05,VALID,1010.2,VALID,0,VALID,104,VALID,0,VALID,22.9536,VALID,8,VALID,0.2,
2012-06-26, 00:35:05,VALID,1010.18,VALID,0,VALID,104,VALID,0,VALID,22.9147,VALID,8,VALID,0,
2012-06-26, 00:36:05,VALID,1010.14,VALID,0,VALID,104,VALID,0,VALID,22.9359,VALID,8,VALID,0,
2012-06-26, 00:37:05,VALID,1010.12,VALID,0,VALID,104,VALID,0,VALID,22.9359,VALID,8,VALID,0.102344,
2012-06-26, 00:38:05,VALID,1010.11,VALID,0,VALID,104,VALID,0,VALID,22.9164,VALID,8,VALID,0.0789063,
2012-06-26, 00:39:05,VALID,1010.14,VALID,0,VALID,104,VALID,0,VALID,22.9147,VALID,8,VALID,0.255469,
2012-06-26, 00:40:05,VALID,1010.1,VALID,0,VALID,104,VALID,0,VALID,22.8952,VALID,8,VALID,0.183984,
2012-06-26, 00:41:05,VALID,1010.11,VALID,0,VALID,104,VALID,0,VALID,22.8952,VALID,8,VALID,0,
2012-06-26, 00:42:05,VALID,1010.11,VALID,0,VALID,104,VALID,0.112112,VALID,22.8757,VALID,8,VALID,0,
2012-06-26, 00:43:05,VALID,1010.09,VALID,0,VALID,104,VALID,0.112112,VALID,22.8757,VALID,8,VALID,0,
2012-06-26, 00:44:05,VALID,1010.12,VALID,0,VALID,104,VALID,0.112112,VALID,22.8562,VALID,8,VALID,0,
2012-06-26, 00:45:05,VALID,1010.1,VALID,0,VALID,104,VALID,0.112112,VALID,22.8545,VALID,8,VALID,0,
2012-06-26, 00:46:05,VALID,1010.12,VALID,0,VALID,104,VALID,0.112112,VALID,22.8562,VALID,8,VALID,0,
2012-06-26, 00:47:05,VALID,1010.11,VALID,0,VALID,104,VALID,0.112112,VALID,22.8155,VALID,8,VALID,0,
2012-06-26, 00:48:05,VALID,1010.09,VALID,0,VALID,104,VALID,0,VALID,22.8368,VALID,8,VALID,0,
2012-06-26, 00:49:05,VALID,1010.08,VALID,0,VALID,104,VALID,0.112112,VALID,22.8368,VALID,8,VALID,0,
2012-06-26, 00:50:05,VALID,1010.09,VALID,0,VALID,104,VALID,0.112112,VALID,22.8173,VALID,8,VALID,0,
2012-06-26, 00:51:05,VALID,1010.04,VALID,0,VALID,104,VALID,0,VALID,22.7783,VALID,8,VALID,0,
2012-06-26, 00:52:05,VALID,1010.03,VALID,0,VALID,104,VALID,0.112112,VALID,22.7571,VALID,8,VALID,0,
2012-06-26, 00:53:05,VALID,1010,VALID,0,VALID,104,VALID,0,VALID,22.7588,VALID,8,VALID,0.0480469,
2012-06-26, 00:54:05,VALID,1009.96,VALID,0,VALID,104,VALID,0,VALID,22.7588,VALID,8,VALID,0.414844,
2012-06-26, 00:55:05,VALID,1009.96,VALID,0,VALID,104,VALID,0,VALID,22.7394,VALID,8,VALID,0.380078,
2012-06-26, 00:56:05,VALID,1009.98,VALID,0,VALID,104,VALID,0,VALID,22.7394,VALID,8,VALID,0.233594,
2012-06-26, 00:57:05,VALID,1009.99,VALID,0,VALID,104,VALID,0,VALID,22.7394,VALID,8,VALID,0.208984,
2012-06-26, 00:58:05,VALID,1010.04,VALID,0,VALID,104,VALID,0.112112,VALID,22.7199,VALID,8,VALID,0,
2012-06-26, 00:59:05,VALID,1010.04,VALID,0,VALID,104,VALID,0.112112,VALID,22.7004,VALID,8,VALID,0,
2012-06-26, 01:00:04,VALID,1010.07,VALID,0,VALID,104,VALID,0,VALID,22.6792,VALID,8,VALID,0,
2012-06-26, 01:01:04,VALID,1010.1,VALID,0,VALID,104,VALID,0,VALID,22.6809,VALID,8,VALID,0,
2012-06-26, 01:02:04,VALID,1010.07,VALID,0,VALID,104,VALID,0,VALID,22.6809,VALID,8,VALID,0,
2012-06-26, 01:03:04,VALID,1010.08,VALID,0,VALID,104,VALID,0,VALID,22.6809,VALID,8,VALID,0,
2012-06-26, 01:04:04,VALID,1010.07,VALID,0,VALID,104,VALID,0.112112,VALID,22.6402,VALID,8,VALID,0,
2012-06-26, 01:05:04,VALID,1010.08,VALID,0,VALID,104,VALID,0.112112,VALID,22.6614,VALID,8,VALID,0,
2012-06-26, 01:06:04,VALID,1010.09,VALID,0,VALID,104,VALID,0.112112,VALID,22.642,VALID,8,VALID,0,
2012-06-26, 01:07:04,VALID,1010.1,VALID,0,VALID,104,VALID,0,VALID,22.6597,VALID,8,VALID,0,
2012-06-26, 01:08:04,VALID,1010.12,VALID,0,VALID,104,VALID,0.112112,VALID,22.6614,VALID,8,VALID,0,
2012-06-26, 01:09:04,VALID,1010.1,VALID,0,VALID,104,VALID,0,VALID,22.6614,VALID,8,VALID,0,
2012-06-26, 01:10:04,VALID,1010.12,VALID,0,VALID,104,VALID,0,VALID,22.6792,VALID,8,VALID,0,
2012-06-26, 01:11:04,VALID,1010.12,VALID,0,VALID,104,VALID,0.112112,VALID,22.7182,VALID,8,VALID,0,
2012-06-26, 01:12:04,VALID,1010.12,VALID,0,VALID,104,VALID,0.112112,VALID,22.7588,VALID,8,VALID,0,
2012-06-26, 01:13:04,VALID,1010.12,VALID,0,VALID,104,VALID,0.112112,VALID,22.7588,VALID,8,VALID,0,
2012-06-26, 01:14:04,VALID,1010.1,VALID,0,VALID,104,VALID,0.112112,VALID,22.7588,VALID,8,VALID,0,
2012-06-26, 01:15:04,VALID,1010.08,VALID,0,VALID,104,VALID,0,VALID,22.7394,VALID,8,VALID,0,
2012-06-26, 01:16:04,VALID,1010.07,VALID,0,VALID,104,VALID,0.112112,VALID,22.7588,VALID,8,VALID,0,
2012-06-26, 01:17:04,VALID,1010.03,VALID,0,VALID,104,VALID,0.112112,VALID,22.7588,VALID,8,VALID,0,
2012-06-26, 01:18:04,VALID,1010.02,VALID,0,VALID,104,VALID,0.112112,VALID,22.7571,VALID,8,VALID,0,
2012-06-26, 01:19:04,VALID,1010.02,VALID,0,VALID,104,VALID,0,VALID,22.7978,VALID,8,VALID,0,
2012-06-26, 01:20:04,VALID,1009.99,VALID,0,VALID,104,VALID,0.112112,VALID,22.7571,VALID,8,VALID,0,
2012-06-26, 01:21:04,VALID,1010,VALID,0,VALID,104,VALID,0.112112,VALID,22.7571,VALID,8,VALID,0,
2012-06-26, 01:22:04,VALID,1009.99,VALID,0,VALID,104,VALID,0.112112,VALID,22.7766,VALID,8,VALID,0,
2012-06-26, 01:23:04,VALID,1010,VALID,0,VALID,104,VALID,0.112112,VALID,22.8155,VALID,8,VALID,0,
2012-06-26, 01:24:04,VALID,1009.97,VALID,0,VALID,104,VALID,0,VALID,22.8173,VALID,8,VALID,0,
2012-06-26, 01:25:04,VALID,1010,VALID,0,VALID,104,VALID,0,VALID,22.8173,VALID,8,VALID,0,
2012-06-26, 01:26:04,VALID,1009.98,VALID,0,VALID,104,VALID,0,VALID,22.8385,VALID,8,VALID,0,
2012-06-26, 01:27:04,VALID,1009.97,VALID,0,VALID,104,VALID,0,VALID,22.819,VALID,8,VALID,0,
2012-06-26, 01:28:04,VALID,1009.95,VALID,0,VALID,104,VALID,0,VALID,22.78,VALID,8,VALID,0,
2012-06-26, 01:29:04,VALID,1009.95,VALID,0,VALID,104,VALID,0,VALID,22.7588,VALID,8,VALID,0,
2012-06-26, 01:30:04,VALID,1009.93,VALID,0,VALID,104,VALID,0,VALID,22.78,VALID,8,VALID,0,
2012-06-26, 01:31:04,VALID,1009.93,VALID,0,VALID,104,VALID,0,VALID,22.7588,VALID,8,VALID,0,
2012-06-26, 01:32:04,VALID,1009.9,VALID,0,VALID,104,VALID,0,VALID,22.7394,VALID,8,VALID,0,
2012-06-26, 01:33:04,VALID,1009.87,VALID,0,VALID,104,VALID,0,VALID,22.7606,VALID,8,VALID,0,
2012-06-26, 01:34:04,VALID,1009.87,VALID,0,VALID,104,VALID,0,VALID,22.7394,VALID,8,VALID,0,
2012-06-26, 01:35:04,VALID,1009.88,VALID,0,VALID,104,VALID,0,VALID,22.7199,VALID,8,VALID,0,
2012-06-26, 01:36:04,VALID,1009.86,VALID,0,VALID,104,VALID,0,VALID,22.7199,VALID,8,VALID,0,
2012-06-26, 01:37:04,VALID,1009.85,VALID,0,VALID,104,VALID,0,VALID,22.7199,VALID,8,VALID,0,
2012-06-26, 01:38:04,VALID,1009.87,VALID,0,VALID,104,VALID,0,VALID,22.7216,VALID,8,VALID,0,
2012-06-26, 01:39:04,VALID,1009.88,VALID,0,VALID,104,VALID,0,VALID,22.7394,VALID,8,VALID,0,
2012-06-26, 01:40:04,VALID,1009.85,VALID,0,VALID,104,VALID,0.112112,VALID,22.7783,VALID,8,VALID,0,
2012-06-26, 01:41:04,VALID,1009.87,VALID,0,VALID,104,VALID,0,VALID,22.7783,VALID,8,VALID,0,
2012-06-26, 01:42:04,VALID,1009.89,VALID,0,VALID,104,VALID,0,VALID,22.7978,VALID,8,VALID,0.00429688,
2012-06-26, 01:43:04,VALID,1009.86,VALID,0,VALID,104,VALID,0.112112,VALID,22.7978,VALID,8,VALID,0.1,
2012-06-26, 01:44:04,VALID,1009.88,VALID,0,VALID,104,VALID,0,VALID,22.7978,VALID,8,VALID,0.00117188,
2012-06-26, 01:45:04,VALID,1009.89,VALID,0,VALID,104,VALID,0,VALID,22.8173,VALID,8,VALID,0.5875,
2012-06-26, 01:46:04,VALID,1009.87,VALID,0,VALID,104,VALID,0.112112,VALID,22.8368,VALID,8,VALID,0.520312,
2012-06-26, 01:47:04,VALID,1009.86,VALID,0,VALID,104,VALID,0.112112,VALID,22.8545,VALID,113,VALID,0.946094,
2012-06-26, 01:48:04,VALID,1009.86,VALID,0,VALID,104,VALID,0,VALID,22.8952,VALID,155,VALID,0.783594,
2012-06-26, 01:49:04,VALID,1009.84,VALID,0,VALID,104,VALID,0.112112,VALID,22.8935,VALID,161,VALID,0.901172,
2012-06-26, 01:50:04,VALID,1009.85,VALID,0,VALID,104,VALID,0.112112,VALID,22.9129,VALID,138,VALID,0.833594,
2012-06-26, 01:51:04,VALID,1009.83,VALID,0,VALID,104,VALID,0.112112,VALID,22.9536,VALID,116,VALID,0.653516,
2012-06-26, 01:52:04,VALID,1009.82,VALID,0,VALID,104,VALID,0.112112,VALID,22.9731,VALID,99,VALID,0.352344,
2012-06-26, 01:53:04,VALID,1009.81,VALID,0,VALID,104,VALID,0.112112,VALID,23.0121,VALID,99,VALID,0.491016,
2012-06-26, 01:54:04,VALID,1009.8,VALID,0,VALID,104,VALID,0.112112,VALID,23.0121,VALID,99,VALID,0.603516,
2012-06-26, 01:55:04,VALID,1009.81,VALID,0,VALID,104,VALID,0.112112,VALID,22.9909,VALID,108,VALID,0.765234,
2012-06-26, 01:56:04,VALID,1009.79,VALID,0,VALID,104,VALID,0.112112,VALID,23.0121,VALID,109,VALID,0.496875,
2012-06-26, 01:57:04,VALID,1009.81,VALID,0,VALID,104,VALID,0,VALID,22.9926,VALID,109,VALID,0.453125,
2012-06-26, 01:58:04,VALID,1009.83,VALID,0,VALID,104,VALID,0.112112,VALID,22.9926,VALID,109,VALID,0.554297,
2012-06-26, 01:59:04,VALID,1009.83,VALID,0,VALID,104,VALID,0.112112,VALID,23.0121,VALID,109,VALID,0.0726563,
2012-06-26, 02:00:04,VALID,1009.87,VALID,0,VALID,104,VALID,0.112112,VALID,22.9926,VALID,109,VALID,0.530469,
2012-06-26, 02:01:04,VALID,1009.85,VALID,0,VALID,104,VALID,0,VALID,22.9926,VALID,109,VALID,0.483203,
2012-06-26, 02:02:04,VALID,1009.85,VALID,0,VALID,104,VALID,0.112112,VALID,23.0121,VALID,109,VALID,0.244531,
2012-06-26, 02:03:04,VALID,1009.86,VALID,0,VALID,104,VALID,0.112112,VALID,23.0121,VALID,109,VALID,0.673828,
2012-06-26, 02:04:04,VALID,1009.87,VALID,0,VALID,104,VALID,0.112112,VALID,23.0316,VALID,109,VALID,0.5625,
2012-06-26, 02:05:04,VALID,1009.83,VALID,0,VALID,104,VALID,0,VALID,23.0316,VALID,109,VALID,0.341016,
2012-06-26, 02:06:04,VALID,1009.83,VALID,0,VALID,104,VALID,0,VALID,23.0316,VALID,109,VALID,0.290625,
2012-06-26, 02:07:04,VALID,1009.86,VALID,0,VALID,104,VALID,0.112112,VALID,23.0316,VALID,109,VALID,0.392188,
2012-06-26, 02:08:04,VALID,1009.86,VALID,0,VALID,104,VALID,0,VALID,23.0316,VALID,109,VALID,0.43125,
2012-06-26, 02:09:04,VALID,1009.86,VALID,0,VALID,104,VALID,0,VALID,23.0121,VALID,109,VALID,0.153516,
2012-06-26, 02:10:04,VALID,1009.87,VALID,0,VALID,104,VALID,0,VALID,22.9714,VALID,108,VALID,0.293359,
2012-06-26, 02:11:04,VALID,1009.88,VALID,0,VALID,104,VALID,0.112112,VALID,22.9926,VALID,83,VALID,0.43125,
2012-06-26, 02:12:04,VALID,1009.88,VALID,0,VALID,104,VALID,0.112112,VALID,22.9731,VALID,82,VALID,0.461719,
2012-06-26, 02:13:04,VALID,1009.84,VALID,0,VALID,104,VALID,0.112112,VALID,22.9731,VALID,82,VALID,0.149609,
2012-06-26, 02:14:04,VALID,1009.85,VALID,0,VALID,104,VALID,0.112112,VALID,22.9731,VALID,82,VALID,0.294141,
2012-06-26, 02:15:04,VALID,1009.77,VALID,0,VALID,104,VALID,0.112112,VALID,22.9731,VALID,82,VALID,0.248047,
2012-06-26, 02:16:04,VALID,1009.74,VALID,0,VALID,104,VALID,0.112112,VALID,22.9536,VALID,82,VALID,0.378906,
2012-06-26, 02:17:04,VALID,1009.72,VALID,0,VALID,104,VALID,0,VALID,22.9342,VALID,82,VALID,0.0960938,
2012-06-26, 02:18:04,VALID,1009.72,VALID,0,VALID,104,VALID,0,VALID,22.8935,VALID,82,VALID,0,
2012-06-26, 02:19:04,VALID,1009.71,VALID,0,VALID,104,VALID,0.112112,VALID,22.9147,VALID,82,VALID,0,
2012-06-26, 02:20:04,VALID,1009.76,VALID,0,VALID,104,VALID,0,VALID,22.8952,VALID,82,VALID,0.0359375,
2012-06-26, 02:21:04,VALID,1009.75,VALID,0,VALID,104,VALID,0.112112,VALID,22.874,VALID,82,VALID,0,
2012-06-26, 02:22:04,VALID,1009.76,VALID,0,VALID,104,VALID,0,VALID,22.8935,VALID,82,VALID,0.0753906,
2012-06-26, 02:23:04,VALID,1009.76,VALID,0,VALID,104,VALID,0,VALID,22.9147,VALID,82,VALID,0.203125,
2012-06-26, 02:24:04,VALID,1009.75,VALID,0,VALID,104,VALID,0,VALID,22.8952,VALID,82,VALID,0.0582031,
2012-06-26, 02:25:04,VALID,1009.74,VALID,0,VALID,104,VALID,0.112112,VALID,22.8757,VALID,82,VALID,0,
2012-06-26, 02:26:04,VALID,1009.74,VALID,0,VALID,104,VALID,0.112112,VALID,22.8757,VALID,82,VALID,0,
2012-06-26, 02:27:04,VALID,1009.74,VALID,0,VALID,104,VALID,0.112112,VALID,22.8155,VALID,82,VALID,0,
2012-06-26, 02:28:04,VALID,1009.72,VALID,0,VALID,104,VALID,0.112112,VALID,22.835,VALID,82,VALID,0,
2012-06-26, 02:29:04,VALID,1009.71,VALID,0,VALID,104,VALID,0.112112,VALID,22.8562,VALID,82,VALID,0,
2012-06-26, 02:30:04,VALID,1009.72,VALID,0,VALID,104,VALID,0,VALID,22.8562,VALID,82,VALID,0,
2012-06-26, 02:31:04,VALID,1009.68,VALID,0,VALID,104,VALID,0,VALID,22.835,VALID,82,VALID,0,
2012-06-26, 02:32:04,VALID,1009.69,VALID,0,VALID,104,VALID,0,VALID,22.8562,VALID,82,VALID,0,
2012-06-26, 02:33:04,VALID,1009.66,VALID,0,VALID,104,VALID,0,VALID,22.8562,VALID,82,VALID,0.0359375,
2012-06-26, 02:34:04,VALID,1009.64,VALID,0,VALID,104,VALID,0,VALID,22.8562,VALID,82,VALID,0.405469,
2012-06-26, 02:35:04,VALID,1009.65,VALID,0,VALID,104,VALID,0.112112,VALID,22.835,VALID,82,VALID,0.353516,
2012-06-26, 02:36:04,VALID,1009.66,VALID,0,VALID,104,VALID,0,VALID,22.8562,VALID,82,VALID,0.380859,
2012-06-26, 02:37:04,VALID,1009.66,VALID,0,VALID,104,VALID,0,VALID,22.8562,VALID,82,VALID,0.430469,
2012-06-26, 02:38:04,VALID,1009.67,VALID,0,VALID,104,VALID,0,VALID,22.835,VALID,82,VALID,0.157422,
2012-06-26, 02:39:04,VALID,1009.7,VALID,0,VALID,104,VALID,0,VALID,22.8562,VALID,82,VALID,0.242578,
2012-06-26, 02:40:04,VALID,1009.7,VALID,0,VALID,104,VALID,0.112112,VALID,22.835,VALID,82,VALID,0.150391,
2012-06-26, 02:41:04,VALID,1009.73,VALID,0,VALID,104,VALID,0,VALID,22.8952,VALID,82,VALID,0.323438,
2012-06-26, 02:42:04,VALID,1009.74,VALID,0,VALID,104,VALID,0,VALID,22.8952,VALID,82,VALID,0.00078125,
2012-06-26, 02:43:04,VALID,1009.75,VALID,0,VALID,104,VALID,0,VALID,22.8952,VALID,82,VALID,0,
2012-06-26, 02:44:04,VALID,1009.75,VALID,0,VALID,104,VALID,0,VALID,22.8952,VALID,82,VALID,0.000390625,
2012-06-26, 02:45:04,VALID,1009.75,VALID,0,VALID,104,VALID,0.112112,VALID,22.9342,VALID,82,VALID,0.265625,
2012-06-26, 02:46:04,VALID,1009.78,VALID,0,VALID,104,VALID,0,VALID,22.9536,VALID,82,VALID,0,
2012-06-26, 02:47:04,VALID,1009.78,VALID,0,VALID,104,VALID,0.112112,VALID,22.9536,VALID,82,VALID,0,
2012-06-26, 02:48:04,VALID,1009.75,VALID,0,VALID,104,VALID,0.112112,VALID,22.9536,VALID,82,VALID,0,
2012-06-26, 02:49:04,VALID,1009.74,VALID,0,VALID,104,VALID,0,VALID,22.9129,VALID,82,VALID,0,
2012-06-26, 02:50:04,VALID,1009.7,VALID,0,VALID,104,VALID,0.112112,VALID,22.9731,VALID,82,VALID,0,
2012-06-26, 02:51:04,VALID,1009.68,VALID,0,VALID,104,VALID,0,VALID,22.9731,VALID,82,VALID,0,
2012-06-26, 02:52:04,VALID,1009.66,VALID,0,VALID,104,VALID,0.112112,VALID,22.9342,VALID,82,VALID,0,
2012-06-26, 02:53:04,VALID,1009.66,VALID,0,VALID,104,VALID,0.112112,VALID,22.9324,VALID,82,VALID,0,
2012-06-26, 02:54:04,VALID,1009.68,VALID,0,VALID,104,VALID,0,VALID,22.9342,VALID,82,VALID,0,
2012-06-26, 02:55:04,VALID,1009.66,VALID,0,VALID,104,VALID,0,VALID,22.9943,VALID,82,VALID,0,
2012-06-26, 02:56:04,VALID,1009.69,VALID,0,VALID,104,VALID,0,VALID,23.0121,VALID,82,VALID,0,
2012-06-26, 02:57:04,VALID,1009.69,VALID,0,VALID,104,VALID,0,VALID,23.0121,VALID,82,VALID,0,
2012-06-26, 02:58:04,VALID,1009.7,VALID,0,VALID,104,VALID,0,VALID,23.0528,VALID,82,VALID,0.307813,
2012-06-26, 02:59:04,VALID,1009.69,VALID,0,VALID,104,VALID,0,VALID,23.0121,VALID,82,VALID,0.190625,
2012-06-26, 03:00:04,VALID,1009.71,VALID,0,VALID,104,VALID,0,VALID,23.0511,VALID,82,VALID,0.0210938,
2012-06-26, 03:01:04,VALID,1009.67,VALID,0,VALID,104,VALID,0,VALID,23.09,VALID,82,VALID,0.0429688,
2012-06-26, 03:02:04,VALID,1009.67,VALID,0,VALID,104,VALID,0.112112,VALID,23.1095,VALID,82,VALID,0,
2012-06-26, 03:03:04,VALID,1009.68,VALID,0,VALID,104,VALID,0,VALID,23.1307,VALID,82,VALID,0.0195313,
2012-06-26, 03:04:04,VALID,1009.69,VALID,0,VALID,104,VALID,0,VALID,23.1095,VALID,82,VALID,0,
2012-06-26, 03:05:04,VALID,1009.69,VALID,0,VALID,104,VALID,0,VALID,23.09,VALID,82,VALID,0.0351563,
2012-06-26, 03:06:04,VALID,1009.69,VALID,0,VALID,104,VALID,0,VALID,23.09,VALID,82,VALID,0,
2012-06-26, 03:07:04,VALID,1009.67,VALID,0,VALID,104,VALID,0,VALID,23.129,VALID,82,VALID,0,
2012-06-26, 03:08:04,VALID,1009.68,VALID,0,VALID,104,VALID,0,VALID,23.1485,VALID,82,VALID,0,
2012-06-26, 03:09:04,VALID,1009.68,VALID,0,VALID,104,VALID,0.112112,VALID,23.129,VALID,82,VALID,0,
2012-06-26, 03:10:04,VALID,1009.69,VALID,0,VALID,104,VALID,0,VALID,23.09,VALID,82,VALID,0,
2012-06-26, 03:11:04,VALID,1009.69,VALID,0,VALID,104,VALID,0.112112,VALID,23.0511,VALID,82,VALID,0,
2012-06-26, 03:12:04,VALID,1009.69,VALID,0,VALID,104,VALID,0.112112,VALID,23.0103,VALID,82,VALID,0,
2012-06-26, 03:13:04,VALID,1009.66,VALID,0,VALID,104,VALID,0.112112,VALID,22.9714,VALID,82,VALID,0.0984375,
2012-06-26, 03:14:04,VALID,1009.67,VALID,0,VALID,104,VALID,0.112112,VALID,22.9324,VALID,82,VALID,0.305078,
2012-06-26, 03:15:04,VALID,1009.67,VALID,0,VALID,104,VALID,0,VALID,22.8935,VALID,82,VALID,0.282813,
2012-06-26, 03:16:04,VALID,1009.66,VALID,0,VALID,104,VALID,0.112112,VALID,22.9147,VALID,82,VALID,0.286328,
2012-06-26, 03:17:04,VALID,1009.65,VALID,0,VALID,104,VALID,0.112112,VALID,22.8935,VALID,82,VALID,0.119141,
2012-06-26, 03:18:04,VALID,1009.68,VALID,0,VALID,104,VALID,0.112112,VALID,22.8952,VALID,82,VALID,0.122266,
2012-06-26, 03:19:04,VALID,1009.68,VALID,0,VALID,104,VALID,0,VALID,22.9147,VALID,82,VALID,0,
2012-06-26, 03:20:04,VALID,1009.66,VALID,0,VALID,104,VALID,0,VALID,22.9147,VALID,82,VALID,0,
2012-06-26, 03:21:04,VALID,1009.69,VALID,0,VALID,104,VALID,0,VALID,22.9536,VALID,82,VALID,0.298438,
2012-06-26, 03:22:04,VALID,1009.69,VALID,0,VALID,104,VALID,0,VALID,23.0121,VALID,82,VALID,0,
2012-06-26, 03:23:04,VALID,1009.69,VALID,0,VALID,104,VALID,0,VALID,23.0511,VALID,82,VALID,0.000390625,
2012-06-26, 03:24:04,VALID,1009.71,VALID,0,VALID,104,VALID,0.112112,VALID,23.0883,VALID,82,VALID,0.288672,
2012-06-26, 03:25:04,VALID,1009.68,VALID,0,VALID,104,VALID,0,VALID,23.1679,VALID,82,VALID,0.277344,
2012-06-26, 03:26:04,VALID,1009.67,VALID,0,VALID,104,VALID,0.112112,VALID,23.2069,VALID,82,VALID,0.288672,
2012-06-26, 03:27:04,VALID,1009.68,VALID,0,VALID,104,VALID,0.112112,VALID,23.2246,VALID,83,VALID,0.431641,
2012-06-26, 03:28:04,VALID,1009.65,VALID,0,VALID,104,VALID,0,VALID,23.2246,VALID,83,VALID,0.409375,
2012-06-26, 03:29:04,VALID,1009.67,VALID,0,VALID,104,VALID,0.112112,VALID,23.2848,VALID,83,VALID,0.682422,
2012-06-26, 03:30:04,VALID,1009.65,VALID,0,VALID,104,VALID,0,VALID,23.3433,VALID,83,VALID,0.437109,
2012-06-26, 03:31:04,VALID,1009.69,VALID,0,VALID,104,VALID,0.112112,VALID,23.3823,VALID,88,VALID,0.637109,
2012-06-26, 03:32:04,VALID,1009.67,VALID,0,VALID,104,VALID,0.112112,VALID,23.4,VALID,94,VALID,0.822266,
2012-06-26, 03:33:04,VALID,1009.66,VALID,0,VALID,104,VALID,0.112112,VALID,23.4992,VALID,94,VALID,0.635547,
2012-06-26, 03:34:04,VALID,1009.67,VALID,0,VALID,104,VALID,0.112112,VALID,23.5169,VALID,102,VALID,0.867969,
2012-06-26, 03:35:04,VALID,1009.63,VALID,0,VALID,104,VALID,0.112112,VALID,23.5753,VALID,101,VALID,0.601563,
2012-06-26, 03:36:04,VALID,1009.67,VALID,0,VALID,104,VALID,0.112112,VALID,23.5948,VALID,102,VALID,0.567187,
2012-06-26, 03:37:04,VALID,1009.66,VALID,0,VALID,104,VALID,0.112112,VALID,23.6338,VALID,112,VALID,0.566797,
2012-06-26, 03:38:04,VALID,1009.73,VALID,0,VALID,104,VALID,0,VALID,23.6745,VALID,112,VALID,0.257031,
2012-06-26, 03:39:04,VALID,1009.72,VALID,0,VALID,104,VALID,0,VALID,23.6532,VALID,112,VALID,0.534375,
2012-06-26, 03:40:04,VALID,1009.75,VALID,0,VALID,104,VALID,0.112112,VALID,23.694,VALID,112,VALID,0.435937,
2012-06-26, 03:41:04,VALID,1009.78,VALID,0,VALID,104,VALID,0.112112,VALID,23.6727,VALID,114,VALID,0.707422,
2012-06-26, 03:42:04,VALID,1009.76,VALID,0,VALID,104,VALID,0,VALID,23.7135,VALID,142,VALID,0.704297,
2012-06-26, 03:43:04,VALID,1009.82,VALID,0,VALID,104,VALID,0.112112,VALID,23.733,VALID,142,VALID,0.55,
2012-06-26, 03:44:04,VALID,1009.81,VALID,0,VALID,104,VALID,0.112112,VALID,23.6922,VALID,142,VALID,0.338281,
2012-06-26, 03:45:04,VALID,1009.82,VALID,0,VALID,104,VALID,0,VALID,23.7117,VALID,141,VALID,0.714063,
2012-06-26, 03:46:04,VALID,1009.8,VALID,0,VALID,104,VALID,0.112112,VALID,23.7312,VALID,141,VALID,0.479297,
2012-06-26, 03:47:04,VALID,1009.79,VALID,0,VALID,104,VALID,0,VALID,23.7525,VALID,141,VALID,0.412891,
2012-06-26, 03:48:04,VALID,1009.85,VALID,0,VALID,104,VALID,0.112112,VALID,23.733,VALID,141,VALID,0.396094,
2012-06-26, 03:49:04,VALID,1009.87,VALID,0,VALID,104,VALID,0.112112,VALID,23.7117,VALID,137,VALID,0.566797,
2012-06-26, 03:50:04,VALID,1009.89,VALID,0,VALID,104,VALID,0.112112,VALID,23.7135,VALID,137,VALID,0.334766,
2012-06-26, 03:51:04,VALID,1009.93,VALID,0,VALID,104,VALID,0,VALID,23.7135,VALID,137,VALID,0.113672,
2012-06-26, 03:52:04,VALID,1009.96,VALID,0,VALID,104,VALID,0,VALID,23.694,VALID,137,VALID,0.0125,
2012-06-26, 03:53:04,VALID,1009.96,VALID,0,VALID,104,VALID,0,VALID,23.694,VALID,137,VALID,0.1125,
2012-06-26, 03:54:04,VALID,1010,VALID,0,VALID,104,VALID,0,VALID,23.7135,VALID,137,VALID,0.192969,